www.pogodaiklimat.ru

Погода и климат >> Архив погоды >> Канада >> Нунавут >> Талойоак


ПОГОДА в Талойоаке

  • Прогноз погоды в Талойоаке
  • Монитор погоды в Талойоаке

АРХИВ ПОГОДЫ в Талойоаке

Время (UTC), дата Ветер
(напр.,м/с)
 
Видим.   Явления Облачность Т
(С)
Тd
(С)
f
(%)
Тe
(С)
Тes
(С)
Комфортность P
(гПа)
Po
(гПа)
Тmin
(С)
Tmax
(С)
R
(мм)
R24
(мм)
S
(см)
18 13.07 СВ 4 24 км слаб. дождь 9/9 100 м
[Sc]
+6.2 +5.1 93 +2 +3 995.9 992.5 +3.4 +6.9 3
21 13.07 СВ 4 24 км 9/9 200 м
[]
+6.6 +5.3 91 +3 +4 996.6 993.2
00 14.07 С 1 24 км слаб. дождь 9/9 100 м
[Sc]
+7.9 +6.4 90 +7 +7 997.0 993.6 +3.5 +8.1 0.8
03 14.07 Ю 2 800 м 6/6 <50 м
[]
+4.5 +3.9 96 +2 +2 997.1 993.7
06 14.07 3200 м слаб. дождь н/о +2.3 +1.7 96 -2 -2 997.0 993.5 +1.8 +8.1 1
09 14.07 Ю 1 16 км 8/8 1000 м
[]
+2.6 +2.1 97 +1 +1 997.2 993.7
12 14.07 СЗ 7 12 км слаб. ливневой дождь 9/9 600 м
[Sc]
+8.6 +7.8 95 +4 +4 997.8 994.4 +1.8 +8.1 4
15 14.07 СЗ 5 24 км 9/9 200 м
[]
+10.0 +8.4 90 +7 +7 998.9 995.5
03 15.07 СЗ 6 24 км 5/5 300 м
[]
+10.2 +7.5 83 +7 +7 1002.8 999.4
06 15.07 Ю 2 24 км 9/9 1000 м
[Sc Ac trans]
+3.0 +2.0 93 0 0 1003.4 999.9 12
09 15.07 Ю 2 24 км 6/6 1500 м
[]
+3.0 +1.3 89 0 +1 1004.6 1001.0
12 15.07 ЮВ 3 24 км 9/9 1500 м
[Sc]
+3.5 +2.3 92 -0 0 1005.1 1001.5
15 15.07 Ю 3 24 км 9/9 200 м
[]
+6.4 +4.3 86 +3 +4 1004.8 1001.3
18 15.07 Ю 3 24 км 8/5 200 м
[Cu Sc As trans Ci sp]
+9.5 +6.8 83 +7 +11 1004.6 1001.1 +9.6
21 15.07 Ю 2 24 км 9/9 200 м
[]
+10.3 +7.7 84 +9 +10 1004.3 1000.8
00 16.07 Ю 4 24 км 6/6 1000 м
[Sc]
+12.4 +4.3 58 +11 +12 1003.8 1000.3 +1.6 +12.7
15 16.07 ЮВ 2 24 км 9/9 600 м
[]
+11.1 +7.3 77 +10 +11 1002.4 999.0
18 16.07 Ю 4 24 км 8/6 600 м
[Cu Sc Ac trans]
+12.5 +8.1 75 +11 +13 1001.0 997.6
21 16.07 Ю 2 24 км 9/9 1500 м
[]
+9.3 +6.6 83 +8 +9 1000.2 996.8
00 17.07 Ю 1 24 км 10/3 1500 м
[Sc Ac As]
+8.2 +5.5 83 +7 +8 999.1 995.7
03 17.07 В 4 16 км 10/10 200 м
[]
+9.2 +7.8 91 +6 +6 997.0 993.6
06 17.07 СВ 5 16 км в посл. час дождь 9/6 200 м
[Sc As trans]
+6.9 +6.2 95 +3 +3 994.6 991.2 2
09 17.07 СВ 6 12 км 10/10 200 м
[]
+5.2 +4.6 96 0 0 992.9 989.5
12 17.07 СВ 7 6000 м слаб. морось {дождь} 10/10 200 м
[Frnb]
+4.6 +4.0 96 -1 -1 991.8 988.4 +4.6 4
15 17.07 СВ 8 6000 м 8/8 100 м
[]
+5.0 +4.3 95 -1 -1 991.4 988.0
18 17.07 6000 м слаб. ливневой дождь н/о +4.8 +4.1 95 -1 -1 992.0 988.6 +4.4 +7.3 3
21 17.07 СВ 8 24 км 9/9 100 м
[]
+5.4 +4.6 95 -1 -1 993.1 989.7
00 18.07 3200 м слаб. морось {дождь} н/о +7.4 +6.7 95 +2 +2 994.5 991.1 +4.4 +7.4 0.4
03 18.07 СВ 7 24 км 8/8 100 м
[]
+7.5 +6.1 91 +3 +3 995.8 992.4
06 18.07 СВ 4 24 км {дождь} 9/9 200 м
[Sc]
+7.3 +6.0 91 +4 +4 997.2 993.8 +4.4 +8.2 0.0 231
09 18.07 С 5 24 км 9/9 1000 м
[]
+7.8 +6.1 89 +4 +4 998.6 995.2
12 18.07 С 6 24 км 8/0 2000 м
[Ac As Ci fib]
+9.2 +6.5 83 +5 +6 999.3 995.9 +6.7 +8.2
15 18.07 СВ 4 24 км 3/3 600 м
[]
+13.1 +6.8 66 +12 +15 999.8 996.4
18 18.07 В 4 24 км 3/3 300 м
[Cu med, cong Ac trans Ci sp]
+13.3 +6.5 63 +12 +16 1000.1 996.7 +4.6 +14.1
21 18.07 ЮЗ 4 24 км 5/5 300 м
[]
+11.4 +6.7 73 +9 +12 1001.0 997.6
00 19.07 Ю 2 24 км осадки на расстоянии 9/9 600 м
[Cu med, cong Ci sp]
+9.2 +6.4 83 +8 +8 1001.6 998.2 +6.7 +14.1
03 19.07 ЮВ 1 24 км 9/9 1000 м
[]
+9.6 +7.5 87 +9 +9 1002.3 998.9
06 19.07 Ю 1 16 км {дождь} 3/1 1500 м
[Sc Ac trans Ci fib]
+5.8 +4.7 93 +4 +4 1002.7 999.3 +5.8 +14.1 0.2
09 19.07 Ю 1 24 км 8/8 1500 м
[]
+4.5 +3.8 95 +3 +3 1003.2 999.7
12 19.07 СВ 3 24 км {туман} 3/3 100 м
[]
+9.6 +7.8 89 +7 +8 1004.2 1000.8 +3.7 +14.1
15 19.07 С 3 24 км 9/9 200 м
[]
+11.0 +5.3 68 +10 +10 1005.1 1001.7
18 19.07 З 3 24 км 8/8 600 м
[Sc Ac As]
+13.7 +6.9 63 +13 +14 1005.4 1002.0 +3.7 +13.7
21 19.07 С 8 24 км 9/9 600 м
[]
+14.0 +5.4 56 +12 +12 1006.2 1002.7
00 20.07 С 8 24 км 5/5 600 м
[Cu med, cong Ci sp]
+12.4 +4.8 60 +10 +10 1007.6 1004.2 +3.7 +14.1
03 20.07 СЗ 7 24 км 9/9 600 м
[]
+10.5 +6.4 76 +7 +7 1008.5 1005.1
06 20.07 СЗ 7 24 км 9/9 1000 м
[Sc]
+9.1 +5.7 79 +5 +5 1009.6 1006.2 +3.7 +14.1 231
09 20.07 СЗ 7 24 км 6/6 1000 м
[]
+7.8 +5.2 84 +3 +3 1010.9 1007.4
12 20.07 СЗ 6 24 км 1/1 1000 м
[Sc]
+8.3 +4.0 74 +5 +5 1012.1 1008.6 +7.1 +14.1
15 20.07 С 3 24 км 3/3 600 м
[]
+9.8 +4.1 68 +8 +12 1012.6 1009.1

 

Местоположение метеостанции Талойоак (Нунавут, Канада): широта 69.55 долгота -93.58 высота над уровнем моря 28 м.

В архиве по умолчанию представлена погода в Талойоаке за последнюю неделю. Архивные данные за месяц целиком и за предыдущие месяцы, начиная с января 2011 года, Вы можете получить, выбрав интересующий диапазон дат из раскрывающегося списка и нажав кнопку "Ввод!".


*Определитесь, кто Вы:
робот инопланетянин человек

Внимание! Время в таблицах - всемирное. Для получения местного времени необходимо прибавить поправку, которая равна -6 ч.

Смотрите также архив погоды в соседних городах и на ближайших метеорологических станциях:

Погода в Шеперд-Бее (Нунавут, Канада) (81 км)
Погода в Джойа Хейвен (Нунавут, Канада) (136 км)
Погода в Кугааруке (Нунавут, Канада) (188 км)
Погода в Кам Фор (Нунавут, Канада) (198 км)
Погода на Острове Хат (Нунавут, Канада) (291 км)
Погода в Глеичене (Альберта, Канада) (405 км)
Погода в Вейджер Бэй (Нунавут, Канада) (444 км)
Погода в Кеймбридж-Бее (Нунавут, Канада) (454 км)
Погода в Кембридж Бэй (Нунавут, Канада) (454 км)
Погода в Арктик Бей (Нунавут, Канада) (490 км)

Пояснения к столбцам:

Ветер - указаны скорость ветра в м/с - средняя за 10 мин, порывы в срок и между сроками (в фигурных скобках) и направление, откуда дует ветер: С - северный, СВ - северо-восточный, В - восточный, ЮВ - юго-восточный, Ю - южный, ЮЗ - юго-западный, З - западный, СЗ - северо-западный.
Видимость - горизонтальная дальность видимости в метрах или километрах. При видимости от 1 до 10 км при отсутствии осадков обычно наблюдается дымка, при ухудшении видимости до 1 км и менее - туман. В сухую погоду видимость может ухудшаться дымом, пылью или мглою.
Явления - указаны атмосферные явления, наблюдавшиеся в срок или в последний час перед сроком; фигурными скобками обозначены явления, наблюдавшиеся между сроками (за 1-3 часа до срока); квадратными скобками обозначены град или гололедные отложения с указанием их диаметра в мм.
Облачность - указаны через наклонную черту общая и нижняя облачность в баллах и высота нижней границы облаков в метрах; квадратными скобками обозначены формы облаков: Ci - перистые, Cs - перисто-слоистые, Cc - перисто-кучевые, Ac - высококучевые, As - высокослоистые, Sc - слоисто-кучевые, Ns - слоисто-дождевые, Cu - кучевые, Cb - кучево-дождевые. Подробнее классификацию облаков см. в Атласе облаков (PDF).
T - Температура воздуха - температура, измеренная на высоте 2 м над землей.
Td - Температура точки росы - температура, при понижении до которой содержащийся в воздухе водяной пар достигнет насыщения.
f - Относительная влажность воздуха - влажноcть воздуха, измеренная на высоте 2 м над землей.
Te - Эффективная температура - температура, которую ощущает одетый по сезону человек в тени. Характеристика душности погоды. При расчете учитывается влияние влажности воздуха и скорости ветра на теплоощущения человека.
Tes - Эффективная температура на солнце - температура, которую ощущает человек, с поправкой на солнечный нагрев. Характеристика знойности погоды. Зависит от высоты солнца над горизонтом, облачности и скорости ветра. Ночью, в пасмурную погоду, а также при ветре 12 м/с и более поправка равна нулю.
P - Атмосферное давление - приведенное к уровню моря атмосферное давление.
Po - Атмосферное давление - измеренное на уровне метеостанции атмосферное давление.
Tmin - Минимальная температура - минимум температуры воздуха на высоте 2 м над землей.
Tmax - Максимальная температура - максимум температуры воздуха на высоте 2 м над землей.
R - Количество осадков - Количество выпавших осадков за период времени, мм. При наведении курсора мыши на число - период времени, за который выпало указанное количество осадков.
R24 - Количество осадков - Количество выпавших осадков за 24 часа, мм.
S - Снежный покров - Высота снежного покрова, см. При наведении курсора мыши на число - состояние снежного покрова и степень покрытия местности в баллах.